DW4362 Weather Reports


time (UTC)temp
C
wind
direction
speed
KPH
gust
KPH
rain 1hr
cm
rain 24hr
cm
rain mn
cm
humidity
%
barometer
mb
20260902223224 29 161 0.0 0.0 0.00 0.61 0.61 84 1013.7
20260902220224 29 160 0.0 0.0 0.00 0.61 0.61 87 1013.9
20260902213224 28 199 0.0 0.0 0.00 0.61 0.61 91 1014.1
20260902210224 27 208 0.0 0.0 0.08 0.61 0.61 94 1014.4
20260902200223 27 210 8.0 9.7 0.53 0.53 0.53 85 1015.4
20260902193223 30 175 0.0 8.0 0.00 0.00 0.00 80 1014.9
20260902190223 33 228 3.2 4.8 0.00 0.00 0.00 60 1015.0
20260902183223 34 292 0.0 3.2 0.00 0.00 0.00 58 1015.3
20260902180223 33 11 0.0 0.0 0.00 0.00 0.00 64 1015.9
20260902173223 34 91 3.2 8.0 0.00 0.00 0.00 59 1016.3
20260902170223 33 41 0.0 0.0 0.00 0.00 0.00 67 1016.6
20260902163223 32 349 0.0 0.0 0.00 0.00 0.00 69 1016.9
20260902150222 30 260 0.0 3.2 0.00 0.00 0.00 80 1017.0
20260902143222 29 295 3.2 3.2 0.00 0.00 0.00 82 1017.0
20260902140222 28 359 3.2 4.8 0.00 0.00 0.00 88 1016.9
20260902133222 26 17 0.0 0.0 0.00 0.00 0.00 93 1017.1
20260902130221 25 309 0.0 0.0 0.00 0.00 0.00 94 1017.1
20260902123221 23 288 0.0 0.0 0.00 0.00 0.00 94 1017.0
20260902113220 22 278 0.0 0.0 0.00 0.00 0.00 94 1016.4
20260902103220 22 278 0.0 0.0 0.00 0.00 0.00 94 1016.0
20260902100220 22 278 0.0 0.0 0.00 0.00 0.00 95 1016.0
20260902093220 22 278 0.0 0.0 0.00 0.00 0.00 95 1015.8
20260902083220 22 278 0.0 0.0 0.00 0.00 0.00 95 1015.3
20260902080220 22 278 0.0 0.0 0.00 0.00 0.00 95 1015.3
20260902073219 22 278 0.0 0.0 0.00 0.00 0.00 95 1015.3
20260902063219 23 278 0.0 0.0 0.00 0.00 0.00 95 1015.6
20260902060219 23 278 0.0 0.0 0.00 0.00 0.00 95 1015.7
20260902050219 23 278 0.0 0.0 0.00 0.00 0.00 94 1015.7
20260902043219 23 278 0.0 0.0 0.00 0.00 0.00 94 1015.8
20260902040219 24 278 0.0 0.0 0.00 0.00 0.00 93 1016.1
20260902030219 24 278 0.0 0.0 0.00 0.00 0.00 91 1016.1
20260902023219 25 278 0.0 0.0 0.00 0.00 0.00 89 1015.8
20260902020219 25 278 0.0 0.0 0.00 0.00 0.00 87 1015.6
20260902013219 26 278 0.0 0.0 0.00 0.00 0.00 85 1015.2
20260902010219 26 266 0.0 0.0 0.00 0.00 0.00 81 1015.0
20260902003219 27 266 0.0 0.0 0.00 0.00 0.00 78 1015.0
20260902000219 27 88 0.0 0.0 0.00 0.00 0.00 84 1014.8
20260901230218 29 88 0.0 0.0 0.00 0.00 0.00 79 1014.8